CAPE
955 1224 1248 1453 1502 1549 1516 1376 1340 1309 1422 1542 1672 1690 1655 1742 1883 1993 2083 2192 2434 2559 2022 1801 1697 1680 1285 1079 1280 1431 1501 1257 926 765 880 950 541 516 647 413 424 209 363
1038 1212 1217 1314 1409 1581 1689 1568 1456 1471 1601 1653 1657 1615 1577 1698 1777 1987 2082 2205 2418 2392 1947 1818 1874 1593 1242 1326 1322 1351 1236 1033 943 1025 1141 977 849 740 750 528 462 249 231
1351 1629 1523 1211 1378 1644 1878 1915 1833 1837 1889 1815 1699 1649 1690 1839 1884 1903 2046 2107 2235 2434 1849 1737 1757 1478 1422 1572 1316 1370 1314 1214 1146 1159 911 664 605 805 537 604 517 449 294
1859 1904 1561 1185 1315 1565 1741 1900 2035 2164 2019 1883 1801 1793 1826 1909 1963 1951 1924 1798 1968 2100 1950 1883 1795 1634 1288 1320 1206 1290 1253 1163 1008 865 488 480 536 613 435 511 690 400 537
2148 1890 1667 1113 1177 1391 1668 1910 2087 2164 2013 1869 1813 1936 1946 2020 2054 2027 1785 1699 1758 2103 2076 1909 1850 1729 1220 1081 1055 1002 843 921 812 398 374 457 677 612 422 473 570 437 599
2162 1954 1838 1682 1132 1304 1577 1888 2036 1981 1982 1949 1907 2024 2115 2140 2011 1945 1695 1688 1807 2075 2120 2119 2063 1598 1038 974 939 801 697 608 576 250 192 425 549 625 556 600 830 760 684
2250 2299 2222 2120 1868 1409 1482 1728 1783 1836 1888 1921 1980 2046 2111 2147 1892 1771 1613 1687 1782 1867 1960 1746 1571 1266 1006 937 812 555 417 184 495 238 281 338 618 1133 796 662 879 834 742
2344 2422 2305 2195 1894 1394 1290 1280 1401 1547 1744 1857 1960 2026 2049 1895 1705 1644 1612 1603 1583 1525 1523 1441 1168 1121 987 964 882 514 217 75 104 189 319 266 394 1042 877 746 885 874 761
2487 2437 2357 2155 1863 1384 1300 1243 1196 1253 1489 1726 1875 1906 1879 1741 1619 1545 1554 1542 1515 1450 1441 1329 1101 1025 980 938 812 529 248 58 84 229 183 114 729 1022 919 756 987 923 824
80 1159 2085 2350 1796 1923 1433 1357 1266 1181 1176 1416 1709 1821 1766 1648 1579 1515 1451 1430 1455 1474 1471 1259 1065 989 922 891 763 592 253 28 59 41 17 97 848 905 884 951 891 692 523
0 0 0 581 1351 1638 1573 1544 1278 1165 1058 1108 1394 1693 1766 1632 1529 1452 1407 1388 1441 1462 1353 1149 987 881 834 862 681 650 262 59 51 30 3 56 507 804 833 935 1011 647 404
0 0 0 50 67 554 1023 1089 1333 1705 1347 1045 1124 1290 1917 1637 1531 1481 1423 1352 1306 1364 1327 1137 941 832 841 718 599 473 306 148 19 5 68 120 426 562 935 978 723 456 379
0 0 0 0 0 0 121 446 835 1311 1308 1321 1093 1108 1262 1527 1573 1503 1429 1369 1353 1335 1250 1165 1003 810 752 716 614 357 165 119 121 74 116 91 339 788 1033 831 531 318 218
0 0 0 0 0 0 0 1 149 542 906 1185 1325 1458 1220 1360 1436 1536 1658 1469 1269 1317 1153 1088 937 746 663 646 471 453 306 200 116 15 29 25 132 930 999 836 408 226 130
0 0 0 0 0 0 0 0 24 61 199 371 625 957 1577 1497 1589 1397 1534 1731 1462 1243 1105 976 869 712 555 642 619 427 435 223 72 3 0 0 108 721 1234 535 418 274 106
0 0 0 0 0 0 0 0 0 1 13 57 217 704 1226 1533 1672 1707 1494 1602 1637 1433 1069 934 814 661 513 518 568 411 458 343 4 6 13 7 126 429 873 855 497 325 169
0 0 0 0 0 0 0 0 0 0 0 0 27 225 604 1287 1578 1810 1641 1650 1536 1248 1044 1010 849 699 606 481 560 522 473 324 196 35 33 3 131 342 521 441 473 381 264
0 0 0 0 0 0 0 0 0 0 0 0 0 5 124 513 1191 1484 1733 1593 1629 1545 1370 1109 841 833 865 557 712 621 514 401 217 119 0 43 184 283 316 135 157 255 235
0 0 0 0 0 0 0 0 0 0 0 0 0 0 0 174 288 1365 1406 1720 1571 1499 1496 1496 926 961 893 747 788 603 535 433 286 309 105 138 97 268 247 139 96 117 79
0 0 0 0 0 0 0 0 0 0 0 0 0 0 0 0 48 144 1065 1380 1698 1587 1539 1338 1209 1035 947 861 734 635 482 445 389 297 218 24 18 164 250 140 100 95 78
0 0 0 0 0 0 0 0 0 0 0 0 0 0 0 0 0 0 66 796 1295 1571 1382 1199 1270 1065 975 837 775 614 576 451 449 311 135 48 70 105 214 108 149 131 76
0 0 0 0 0 0 0 0 0 0 0 0 0 0 0 0 0 0 0 0 887 1095 1347 1285 1210 1255 915 810 692 576 477 470 487 473 322 127 56 70 123 97 81 45 28
0 0 0 0 0 0 0 0 0 0 0 0 0 0 0 0 0 0 0 0 112 770 1058 1186 1398 1148 944 766 622 508 459 366 426 616 555 417 262 81 45 53 37 21 7
0 0 0 0 0 0 0 0 0 0 0 0 0 0 0 0 0 0 0 0 0 519 714 1014 1255 1277 948 833 661 541 483 279 323 670 430 397 352 311 122 38 5 0 0
0 0 0 0 0 0 0 0 0 0 0 0 0 0 0 0 0 0 0 0 0 147 736 868 1001 1171 954 818 784 680 632 413 320 262 212 368 261 143 233 121 47 0 0
0 0 0 0 0 0 0 0 0 0 0 0 0 0 0 0 0 0 0 0 0 0 672 463 666 964 1006 848 786 667 544 533 379 207 103 44 85 99 163 151 103 20 0
CIN
-374 -358 -341 -300 -271 -291 -303 -297 -272 -246 -189 -147 -130 -127 -120 -93 -66 -47 -30 -12 -0 -0 -0 -0 -2 -2 -7 -20 -16 -18 -9 -7 -13 -13 -3 -0 -2 -0 -0 -6 -7 -22 -17
-285 -354 -351 -323 -276 -261 -260 -250 -245 -222 -167 -131 -110 -110 -113 -94 -68 -38 -22 -5 -0 -0 -1 -2 -0 -1 -10 -16 -24 -24 -25 -32 -17 -3 -0 -0 -0 -0 -0 -6 -15 -44 -24
-133 -90 -73 -159 -285 -224 -214 -187 -178 -160 -124 -117 -101 -89 -83 -68 -56 -38 -19 -4 -1 -0 -1 -3 -1 -4 -7 -9 -29 -22 -28 -10 -2 -1 -3 -10 -0 -0 -11 -4 -22 -3 -18
-74 -51 -72 -244 -290 -240 -233 -191 -143 -108 -102 -104 -86 -71 -63 -53 -43 -37 -24 -21 -7 -4 -1 -2 -2 -4 -14 -20 -30 -26 -17 -3 -5 -13 -25 -15 -8 -1 -12 -16 -5 -13 -8
-57 -63 -73 -331 -307 -265 -226 -175 -123 -97 -96 -105 -90 -58 -50 -41 -37 -34 -39 -33 -16 -3 -1 -1 -1 -4 -25 -40 -43 -39 -29 -12 -7 -30 -27 -17 -4 -0 -7 -9 -10 -9 -1
-46 -55 -70 -67 -310 -271 -224 -170 -131 -129 -100 -86 -70 -46 -32 -24 -32 -41 -47 -35 -17 -3 -1 -1 -2 -10 -46 -44 -53 -46 -34 -27 -15 -53 -54 -20 -19 -1 -2 -7 -11 -4 -2
-25 -9 -10 -9 -31 -173 -209 -172 -159 -144 -112 -88 -62 -36 -24 -20 -34 -43 -55 -36 -22 -10 -5 -8 -13 -31 -51 -46 -41 -35 -41 -75 -24 -62 -69 -30 -9 -0 -0 -3 -10 -1 -1
-16 -13 -10 -2 -9 -67 -181 -181 -158 -140 -110 -87 -56 -25 -19 -30 -42 -48 -46 -44 -35 -33 -21 -17 -36 -42 -52 -44 -45 -22 -38 -36 -76 -67 -59 -58 -31 -5 -0 -12 -6 -1 -1
-10 -8 -8 -7 -6 -148 -190 -198 -200 -185 -132 -88 -61 -48 -29 -40 -53 -46 -45 -41 -37 -36 -31 -29 -38 -42 -52 -39 -37 -35 -26 -27 -42 -57 -78 -74 -25 -6 -6 -3 -0 -1 -0
-88 -43 -9 -1 -7 -6 -67 -204 -216 -223 -207 -147 -75 -38 -46 -50 -54 -59 -52 -43 -33 -29 -30 -43 -53 -47 -49 -45 -29 -22 -38 -25 -45 -25 -10 -51 -17 -2 -9 -1 -0 -3 -4
-0 -0 -0 -138 -18 -0 -0 -1 -67 -130 -148 -132 -82 -22 -16 -51 -71 -63 -53 -43 -32 -28 -34 -50 -58 -65 -45 -48 -50 -24 -39 -62 -66 -72 -127 -59 -29 -1 -2 -2 -0 -6 -1
-0 -0 -0 -172 -252 -68 -11 -19 -5 -2 -14 -125 -130 -107 -8 -32 -62 -85 -68 -49 -37 -34 -31 -47 -54 -55 -48 -53 -62 -26 -26 -46 -58 -40 -138 -90 -37 -0 -1 -0 -0 -0 -0
-0 -0 -0 -0 -0 -38 -152 -64 -44 -20 -14 -17 -51 -99 -93 -39 -20 -39 -76 -71 -45 -31 -31 -38 -36 -41 -57 -55 -45 -41 -37 -80 -64 -133 -139 -91 -67 -0 -0 -0 -0 -0 -2
-0 -0 -0 -0 -0 -0 -13 -73 -100 -52 -30 -31 -43 -24 -79 -67 -48 -24 -17 -62 -76 -43 -51 -50 -49 -53 -51 -51 -53 -40 -25 -57 -74 -100 -135 -140 -61 -1 -0 -0 -0 -4 -9
-0 -0 -0 -0 -0 -0 -0 -54 -163 -139 -97 -75 -80 -61 -14 -44 -41 -42 -28 -8 -46 -60 -68 -76 -62 -65 -68 -40 -45 -43 -27 -40 -63 -53 -0 -0 -113 -14 -0 -4 -0 -0 -13
-0 -0 -0 -0 -0 -0 -0 -0 -0 -58 -163 -164 -110 -66 -20 -12 -32 -31 -26 -12 -9 -41 -71 -79 -70 -82 -89 -61 -27 -35 -27 -23 -81 -48 -115 -163 -115 -43 -1 -0 -1 -0 -11
-0 -0 -0 -0 -0 -0 -0 -0 -0 -0 -0 -0 -232 -123 -69 -6 -8 -12 -23 -11 -16 -54 -75 -53 -80 -70 -62 -76 -25 -30 -31 -22 -37 -72 -202 -142 -70 -38 -7 -2 -2 -0 -0
-0 -0 -0 -0 -0 -0 -0 -0 -0 -0 -0 -0 -0 -242 -186 -74 -6 -7 -10 -23 -13 -11 -15 -34 -72 -64 -35 -68 -17 -25 -23 -19 -54 -38 -9 -125 -46 -24 -10 -15 -20 -19 -1
-0 -0 -0 -0 -0 -0 -0 -0 -0 -0 -0 -0 -0 -0 -0 -181 -132 -0 -4 -6 -27 -17 -6 -7 -58 -40 -39 -35 -25 -25 -28 -23 -42 -39 -37 -81 -85 -30 -30 -23 -30 -29 -32
-0 -0 -0 -0 -0 -0 -0 -0 -0 -0 -0 -0 -0 -0 -0 -0 -200 -180 -8 -3 -7 -20 -10 -6 -5 -48 -36 -30 -28 -26 -31 -34 -24 -35 -40 -139 -149 -43 -32 -31 -15 -12 -8
-0 -0 -0 -0 -0 -0 -0 -0 -0 -0 -0 -0 -0 -0 -0 -0 -0 -1 -207 -25 -6 -2 -18 -10 -1 -5 -41 -34 -17 -11 -11 -22 -18 -15 -26 -120 -73 -51 -19 -41 -12 -9 -7
-0 -0 -0 -0 -0 -0 -0 -0 -0 -0 -0 -0 -0 -0 -0 -0 -0 -0 -0 -0 -7 -5 -13 -14 -3 -1 -29 -22 -22 -22 -0 -0 -4 -9 -8 -20 -84 -79 -39 -44 -31 -29 -15
-0 -0 -0 -0 -0 -0 -0 -0 -0 -0 -0 -0 -0 -0 -0 -0 -0 -0 -0 -0 -154 -6 -7 -13 -6 -2 -7 -41 -32 -54 -17 -14 -3 -0 -1 -5 -14 -44 -93 -74 -76 -76 -10
-0 -0 -0 -0 -0 -0 -0 -0 -0 -0 -0 -0 -0 -0 -0 -0 -0 -0 -0 -0 -0 -14 -1 -1 -5 -1 -4 -45 -38 -22 -44 -77 -37 -0 -5 -0 -3 -3 -28 -93 -119 -0 -0
-0 -0 -0 -0 -0 -0 -0 -0 -0 -0 -0 -0 -0 -0 -0 -0 -0 -0 -0 -0 -0 -64 -10 -8 -1 -3 -6 -22 -69 -45 -36 -63 -35 -41 -66 -47 -34 -40 -13 -41 -79 -7 -0
-0 -0 -0 -0 -0 -0 -0 -0 -0 -0 -0 -0 -0 -0 -0 -0 -0 -0 -0 -0 -0 -0 -3 -17 -4 -0 -6 -22 -58 -82 -73 -88 -124 -173 -147 -167 -175 -122 -67 -59 -70 -139 -24
Wind_Speed
23 22 24 26 25 27 23 21 23 27 29 28 30 30 27 27 28 30 29 28 29 28 28 28 27 24 23 23 23 24 26 26 28 31 29 32 33 32 37 37 34 32 34
29 22 25 28 24 25 24 22 22 25 28 29 28 29 29 28 26 27 28 25 26 27 25 25 25 24 23 24 24 26 28 27 28 28 31 33 30 32 33 33 36 32 28
31 26 23 28 26 24 25 24 21 23 26 27 26 25 26 29 26 24 26 24 24 24 22 22 22 23 25 24 25 27 27 26 28 30 31 24 23 27 25 23 28 28 31
27 24 24 27 26 25 26 24 22 22 24 27 26 25 25 25 27 23 22 24 21 20 20 20 20 21 24 25 26 27 26 27 27 29 23 19 20 25 27 30 25 19 18
28 28 22 27 27 26 26 24 22 23 23 25 25 25 25 24 23 23 18 21 21 19 19 18 19 20 24 26 27 25 26 28 26 21 18 16 14 17 19 20 22 14 14
31 29 26 21 27 27 27 25 23 24 22 23 21 22 23 24 22 20 18 16 19 21 20 17 17 21 23 24 27 23 23 25 24 14 18 15 11 12 11 15 14 18 15
30 29 29 26 26 27 26 26 26 25 24 23 21 21 22 21 22 20 16 16 14 19 22 21 18 21 22 23 22 22 22 23 19 17 14 12 13 10 9 10 11 13 13
31 28 29 30 29 30 30 29 28 27 27 25 22 20 21 20 21 21 16 14 14 17 19 22 21 21 21 22 21 23 26 nan 18 18 13 15 3 7 6 9 13 16 16
29 31 30 32 34 36 36 33 30 29 27 26 25 23 21 23 21 20 18 13 13 17 19 21 20 19 19 21 20 25 22 nan nan 13 13 6 15 14 13 16 23 22 19
nan 35 32 30 33 35 35 37 37 36 31 27 26 24 24 23 23 21 19 18 14 16 18 20 21 17 19 20 21 23 21 nan nan nan nan nan 17 16 14 20 21 22 12
nan nan nan 43 36 36 35 36 36 39 38 33 30 26 26 26 24 22 18 19 19 17 17 18 21 20 19 20 23 21 21 nan nan nan nan nan 14 13 11 24 26 18 16
nan nan nan nan nan 40 41 38 37 34 37 40 37 33 29 26 26 25 21 17 18 21 19 18 18 20 23 20 23 21 17 17 nan nan nan 20 15 11 21 25 24 21 17
nan nan nan nan nan nan 37 39 41 38 37 38 38 38 35 29 27 26 26 25 20 20 21 20 19 18 18 21 22 22 16 19 19 nan 19 nan 15 12 20 23 22 22 17
nan nan nan nan nan nan nan nan 41 41 38 40 36 35 38 33 28 25 26 26 25 22 20 23 20 21 16 19 21 25 20 18 18 nan nan nan 16 24 22 24 22 21 17
nan nan nan nan nan nan nan nan nan nan 40 36 35 34 36 35 30 30 25 27 26 25 23 22 22 21 20 19 19 22 22 18 nan nan nan nan 21 20 24 25 26 23 20
nan nan nan nan nan nan nan nan nan nan nan nan 34 34 35 34 33 32 29 26 27 26 24 24 23 22 21 23 20 20 21 18 nan nan nan nan 20 21 20 23 22 21 12
nan nan nan nan nan nan nan nan nan nan nan nan nan 35 34 34 33 33 34 30 26 28 27 24 24 25 24 21 24 22 20 20 20 nan nan nan 17 22 18 16 17 15 12
nan nan nan nan nan nan nan nan nan nan nan nan nan nan 37 35 32 38 36 35 33 32 33 28 26 25 24 23 23 25 22 21 22 18 nan nan 22 18 18 19 16 15 14
nan nan nan nan nan nan nan nan nan nan nan nan nan nan nan 39 38 38 41 37 41 36 35 34 30 27 24 21 24 26 23 22 23 21 19 21 nan 21 17 17 nan 16 nan
nan nan nan nan nan nan nan nan nan nan nan nan nan nan nan nan nan 45 42 39 43 47 38 37 33 30 28 25 26 25 25 22 24 21 21 nan nan 17 18 17 13 nan nan
nan nan nan nan nan nan nan nan nan nan nan nan nan nan nan nan nan nan nan 44 40 46 47 38 39 37 36 30 32 29 25 23 22 22 22 nan nan 17 18 17 17 15 nan
nan nan nan nan nan nan nan nan nan nan nan nan nan nan nan nan nan nan nan nan 46 45 50 49 39 43 39 35 31 31 29 24 24 20 22 20 nan nan 16 nan nan nan nan
nan nan nan nan nan nan nan nan nan nan nan nan nan nan nan nan nan nan nan nan 57 55 50 49 45 41 40 39 31 35 32 22 28 23 20 21 17 nan nan nan nan nan nan
nan nan nan nan nan nan nan nan nan nan nan nan nan nan nan nan nan nan nan nan nan 65 54 49 47 43 46 40 41 35 34 35 30 23 23 20 20 18 18 nan nan nan nan
nan nan nan nan nan nan nan nan nan nan nan nan nan nan nan nan nan nan nan nan nan 70 65 53 50 51 48 45 37 35 37 36 33 31 19 22 23 20 20 20 nan nan nan
nan nan nan nan nan nan nan nan nan nan nan nan nan nan nan nan nan nan nan nan nan nan 71 63 56 52 53 46 42 36 31 33 31 30 27 nan nan nan 22 23 21 nan nan
Wind_Direction
298 295 288 289 290 294 296 300 305 307 308 309 311 312 304 296 289 283 276 279 283 287 293 291 290 293 294 297 299 299 295 298 298 300 301 296 291 289 288 284 279 292 291
287 287 282 288 288 292 291 292 299 305 308 311 315 316 311 303 297 290 282 278 281 286 288 288 291 294 295 301 301 305 301 304 305 305 300 296 291 294 293 292 289 290 282
286 293 292 292 291 290 289 291 298 303 306 307 314 320 316 308 306 303 290 284 282 285 286 292 299 302 301 303 310 310 308 303 301 302 300 290 279 290 285 307 303 313 306
279 278 281 284 288 286 285 286 293 300 304 307 315 322 325 313 310 310 304 293 286 286 289 297 299 304 301 308 310 314 309 302 304 298 297 296 285 293 281 294 296 304 292
276 279 279 290 288 286 282 281 283 291 298 303 314 321 324 323 314 312 310 303 293 281 284 296 304 303 305 312 315 322 317 309 307 299 304 302 290 292 296 297 282 284 263
270 272 275 277 283 288 286 282 280 281 287 295 306 313 319 323 316 311 310 307 300 287 279 286 296 306 312 316 322 324 314 305 291 298 315 303 284 303 293 297 295 285 266
272 274 284 285 287 286 283 280 278 278 282 292 299 306 312 317 318 308 311 309 297 291 285 287 293 304 310 315 321 315 307 298 303 311 305 286 281 304 318 317 286 272 261
277 276 275 279 277 275 271 267 268 271 278 282 288 296 303 309 314 308 308 311 302 292 288 284 295 306 312 318 321 309 305 nan 309 319 314 305 275 308 17 342 308 294 297
260 264 266 267 274 275 274 272 268 267 269 276 283 289 292 297 301 307 299 304 309 298 290 290 299 304 314 316 319 305 314 nan nan 317 321 253 341 276 297 310 288 290 310
nan 257 260 263 273 282 286 290 288 283 279 276 277 280 282 284 291 292 297 294 297 303 298 295 299 305 307 316 308 312 320 nan nan nan nan nan 316 318 290 309 306 317 303
nan nan nan 259 264 271 273 273 277 284 284 279 273 269 273 275 276 280 280 285 292 298 304 300 298 302 307 308 303 313 307 nan nan nan nan nan 292 307 275 304 308 310 285
nan nan nan nan nan 271 269 266 272 275 282 283 281 279 272 269 274 279 274 284 285 294 299 303 304 301 295 294 295 303 294 297 nan nan nan 302 270 279 296 298 305 312 293
nan nan nan nan nan nan 268 276 277 271 269 276 283 280 278 269 262 263 264 261 264 278 276 287 288 287 301 291 293 297 295 297 302 nan 303 nan 284 310 306 308 313 315 297
nan nan nan nan nan nan nan nan 266 266 265 261 263 280 280 275 264 256 257 260 265 268 272 282 287 298 298 294 293 297 301 303 301 nan nan nan 313 339 309 326 323 318 299
nan nan nan nan nan nan nan nan nan nan 262 260 255 255 273 278 274 264 254 258 258 261 271 271 282 292 302 296 290 295 302 305 nan nan nan nan 320 320 324 338 329 320 307
nan nan nan nan nan nan nan nan nan nan nan nan 258 253 254 269 276 275 265 255 258 261 263 273 279 289 298 298 293 288 294 296 nan nan nan nan 318 328 320 325 332 336 321
nan nan nan nan nan nan nan nan nan nan nan nan nan 252 249 258 265 271 271 260 254 259 258 256 264 272 282 289 297 292 281 288 290 nan nan nan 303 319 309 318 322 333 323
nan nan nan nan nan nan nan nan nan nan nan nan nan nan 249 249 255 267 265 268 261 252 255 253 256 262 271 286 288 288 278 271 287 293 nan nan 293 294 296 308 301 318 314
nan nan nan nan nan nan nan nan nan nan nan nan nan nan nan 248 246 254 264 262 265 253 248 250 249 263 272 277 275 278 278 269 272 285 298 296 nan 294 292 308 nan 299 nan
nan nan nan nan nan nan nan nan nan nan nan nan nan nan nan nan nan 246 252 255 260 259 245 244 249 254 259 270 272 269 271 269 262 267 282 nan nan 293 292 299 291 nan nan
nan nan nan nan nan nan nan nan nan nan nan nan nan nan nan nan nan nan nan 253 253 255 258 244 241 247 244 256 260 258 254 264 269 263 269 nan nan 287 290 289 284 273 nan
nan nan nan nan nan nan nan nan nan nan nan nan nan nan nan nan nan nan nan nan 248 248 251 255 245 240 241 253 256 262 255 251 260 260 262 268 nan nan 282 nan nan nan nan
nan nan nan nan nan nan nan nan nan nan nan nan nan nan nan nan nan nan nan nan 240 246 245 248 250 248 242 243 252 259 258 253 255 256 261 259 266 nan nan nan nan nan nan
nan nan nan nan nan nan nan nan nan nan nan nan nan nan nan nan nan nan nan nan nan 244 243 246 249 245 244 243 240 248 255 254 252 245 244 256 261 262 265 nan nan nan nan
nan nan nan nan nan nan nan nan nan nan nan nan nan nan nan nan nan nan nan nan nan 227 238 242 243 241 242 238 244 253 245 248 243 250 249 251 245 258 260 265 nan nan nan
nan nan nan nan nan nan nan nan nan nan nan nan nan nan nan nan nan nan nan nan nan nan 227 237 235 241 240 238 238 246 252 255 249 246 240 nan nan nan 253 259 266 nan nan